Weather in Mazatenango

Guatemala     14˚31′45″N   91˚30′17″W
temp.,
°C
wind,
m/s
gust,
m/s
humid.,
%
clouds,
%
prec.,
mm/h
press.,
hPa
HPBL,
m
16 january, sat
sat1600:00+20˚nne228877 1.8 101529
03:00+20˚nne22780 0.0 101327
06:00+20˚nne22690 0.0 101429
09:00+27˚sse11536 0.0 1016311
12:00+33˚s124323 0.0 10151268
15:00+27˚sw356350 0.7 1012714
18:00+23˚nw118863 3.0 101324
21:00+21˚nne229232 1.5 101527
17 january, sun
sun1700:00+19˚nne228316 1.5 101535
03:00+20˚nne227232 0.0 101327
06:00+20˚nne226647 0.0 101430
09:00+25˚sse1157100 0.0 1015184
12:00+30˚wsw1150100 0.0 1014763
15:00+32˚sw124360 0.0 10111461
18:00+23˚w018433 1.4 101325
21:00+21˚nne22923 1.3 101528
18 january, mon
mon1800:00+20˚n238525 1.3 101540
03:00+20˚nne227516 0.0 101430
06:00+20˚nne22697 0.0 101428
09:00+26˚sse11520 0.0 1015295
12:00+31˚s12420 0.0 10141120
15:00+30˚ssw43484 0.0 10111464
18:00+24˚w11817 0.9 101324
21:00+21˚nne12860 0.1 101629
19 january, tue
tue1900:00+20˚ne127717 0.1 101530
03:00+20˚n226943 0.0 101429
06:00+21˚nne126371 0.0 101525
09:00+27˚s115396 0.0 1016254
12:00+32˚ssw124598 0.0 10141125
15:00+30˚sw4447100 0.3 10121333
18:00+24˚wsw247574 0.3 1013163
21:00+22˚n128176 0.0 101628
20 january, wed
wed2000:00+21˚n126965 0.0 101529
03:00+21˚n226087 0.0 101532
06:00+20˚nne115994 0.0 101530
09:00+27˚ssw114977 0.0 1017243
12:00+33˚ssw113940 0.0 10151175
15:00+32˚sw334361 0.0 10121566
18:00+25˚wsw137181 0.1 101377
21:00+23˚n226485 0.0 101539